DW4219 Weather Reports


Display with metric or nautical units.
time (UTC)temp
F
wind
direction
speed
MPH
gust
MPH
rain 1hr
in
rain 24hr
in
rain mn
in
humidity
%
barometer
mb
20260508213033 82 264 8.0 12.0 0.00 0.00 0.00 13 1009.0
20260508211524 82 224 7.0 12.0 0.00 0.00 0.00 13 1009.2
20260508210024 82 241 10.0 18.0 0.00 0.00 0.00 13 1009.4
20260508204530 82 295 5.0 13.0 0.00 0.00 0.00 13 1009.6
20260508203021 81 224 5.0 13.0 0.00 0.00 0.00 12 1009.6
20260508201520 81 302 7.0 12.0 0.00 0.00 0.00 13 1009.8
20260508200019 81 315 7.0 13.0 0.00 0.00 0.00 14 1009.9
20260508194516 80 266 6.0 12.0 0.00 0.00 0.00 13 1010.0
20260508193015 81 221 4.0 12.0 0.00 0.00 0.00 14 1010.1
20260508191514 80 215 4.0 12.0 0.00 0.00 0.00 14 1010.3
20260508190012 80 38 3.0 6.0 0.00 0.00 0.00 18 1010.6
20260508184506 79 18 3.0 6.0 0.00 0.00 0.00 18 1010.7
20260508183006 79 89 5.0 12.0 0.00 0.00 0.00 18 1010.9
20260508181503 78 88 3.0 8.0 0.00 0.00 0.00 20 1011.1
20260508180003 77 63 8.0 13.0 0.00 0.00 0.00 20 1011.3
20260508174604 77 27 4.0 9.0 0.00 0.00 0.00 21 1011.3
20260508173058 77 54 4.0 11.0 0.00 0.00 0.00 20 1011.5
20260508171556 76 99 3.0 9.0 0.00 0.00 0.00 21 1011.5
20260508170054 76 210 2.0 8.0 0.00 0.00 0.00 20 1011.5
20260508164552 75 46 2.0 5.0 0.00 0.00 0.00 22 1011.9
20260508163001 75 20 1.0 5.0 0.00 0.00 0.00 21 1012.0
20260508161559 74 328 3.0 6.0 0.00 0.00 0.00 22 1012.1
20260508160130 74 198 0.0 2.0 0.00 0.00 0.00 24 1012.2
20260508154558 74 84 0.0 2.0 0.00 0.00 0.00 22 1012.3
20260508153054 73 212 0.0 3.0 0.00 0.00 0.00 23 1012.6
20260508151552 71 235 1.0 3.0 0.00 0.00 0.00 23 1012.7
20260508150047 69 214 0.0 1.0 0.00 0.00 0.00 29 1012.9
20260508144543 63 217 0.0 2.0 0.00 0.00 0.00 33 1013.1
20260508143055 59 237 0.0 2.0 0.00 0.00 0.00 36 1013.2
20260508141549 57 285 0.0 1.0 0.00 0.00 0.00 37 1013.3
20260508140040 53 261 0.0 1.0 0.00 0.00 0.00 41 1013.3
20260508134536 51 242 0.0 3.0 0.00 0.00 0.00 46 1013.2
20260508133043 49 253 0.0 1.0 0.00 0.00 0.00 47 1013.2
20260508131535 47 256 0.0 2.0 0.00 0.00 0.00 46 1013.2
20260508130034 46 229 2.0 3.0 0.00 0.00 0.00 46 1013.1
20260508124533 45 269 0.0 4.0 0.00 0.00 0.00 47 1012.9
20260508123033 44 266 1.0 2.0 0.00 0.00 0.00 49 1012.9
20260508121551 44 224 0.0 1.0 0.00 0.00 0.00 50 1012.8
20260508120031 45 254 0.0 1.0 0.00 0.00 0.00 46 1012.7
20260508114527 45 288 0.0 3.0 0.00 0.00 0.00 44 1012.7
20260508113025 44 248 1.0 3.0 0.00 0.00 0.00 48 1012.6
20260508111522 45 247 0.0 1.0 0.00 0.00 0.00 48 1012.6
20260508110020 45 243 0.0 1.0 0.00 0.00 0.00 47 1012.8
20260508104520 45 251 0.0 1.0 0.00 0.00 0.00 46 1012.8
20260508103016 46 254 0.0 1.0 0.00 0.00 0.00 46 1012.9
20260508101511 48 221 0.0 2.0 0.00 0.00 0.00 42 1012.9
20260508100009 50 231 0.0 2.0 0.00 0.00 0.00 37 1013.1
20260508094507 49 192 0.0 3.0 0.00 0.00 0.00 40 1013.0
20260508093005 50 214 0.0 1.0 0.00 0.00 0.00 37 1012.9
20260508091508 49 205 2.0 4.0 0.00 0.00 0.00 38 1012.9
20260508090003 51 202 0.0 1.0 0.00 0.00 0.00 37 1012.9
20260508084600 52 169 0.0 3.0 0.00 0.00 0.00 36 1013.0
20260508083149 51 171 1.0 2.0 0.00 0.00 0.00 37 1013.1
20260508081557 52 167 0.0 2.0 0.00 0.00 0.00 40 1013.1
20260508080100 54 27 0.0 1.0 0.00 0.00 0.00 36 1013.2
20260508074549 56 176 0.0 2.0 0.00 0.00 0.00 32 1013.1
20260508073055 59 163 0.0 3.0 0.00 0.00 0.00 28 1013.0
20260508071544 59 157 1.0 3.0 0.00 0.00 0.00 28 1013.0
20260508070044 59 151 1.0 4.0 0.00 0.00 0.00 28 1013.1
20260508064601 59 150 1.0 3.0 0.00 0.00 0.00 26 1013.0
20260508063039 60 171 0.0 2.0 0.00 0.00 0.00 26 1013.0
20260508061537 62 269 0.0 1.0 0.00 0.00 0.00 25 1013.1
20260508060034 62 264 0.0 4.0 0.00 0.00 0.00 24 1013.1
20260508054531 62 135 0.0 3.0 0.00 0.00 0.00 24 1013.1
20260508053031 62 124 0.0 2.0 0.00 0.00 0.00 23 1013.2
20260508051530 62 216 1.0 4.0 0.00 0.00 0.00 23 1013.2
20260508050030 62 184 0.0 2.0 0.00 0.00 0.00 24 1013.2
20260508044529 63 234 0.0 1.0 0.00 0.00 0.00 23 1013.2
20260508043032 63 164 0.0 3.0 0.00 0.00 0.00 24 1013.1
20260508041528 64 122 0.0 2.0 0.00 0.00 0.00 23 1013.2
20260508040028 65 124 0.0 3.0 0.00 0.00 0.00 22 1013.0
20260508034527 65 53 0.0 2.0 0.00 0.00 0.00 22 1012.9
20260508033027 66 259 1.0 3.0 0.00 0.00 0.00 22 1012.6
20260508031526 67 217 2.0 6.0 0.00 0.00 0.00 22 1012.4
20260508030025 68 217 3.0 6.0 0.00 0.00 0.00 21 1012.3
20260508024528 70 217 4.0 7.0 0.00 0.00 0.00 20 1012.1
20260508023033 73 234 1.0 3.0 0.00 0.00 0.00 19 1011.9
20260508021523 75 301 6.0 11.0 0.00 0.00 0.00 17 1011.7
20260508020023 76 303 3.0 7.0 0.00 0.00 0.00 17 1011.6
20260508014530 77 256 4.0 9.0 0.00 0.00 0.00 16 1011.5
20260508013020 77 303 3.0 8.0 0.00 0.00 0.00 16 1011.8
20260508011520 77 299 7.0 17.0 0.00 0.00 0.00 15 1011.8
20260508010020 78 302 9.0 14.0 0.00 0.00 0.00 15 1012.1
20260508004516 79 285 3.0 11.0 0.00 0.00 0.00 14 1012.1
20260508003014 78 285 5.0 10.0 0.00 0.00 0.00 14 1012.2
20260508001513 78 191 5.0 12.0 0.00 0.00 0.00 15 1012.4
20260508000010 78 217 5.0 16.0 0.00 0.00 0.00 17 1012.2
20260507234513 78 283 9.0 17.0 0.00 0.00 0.00 16 1012.5
20260507233008 78 193 9.0 18.0 0.00 0.00 0.00 16 1012.4
20260507231507 77 228 9.0 16.0 0.00 0.00 0.00 16 1012.7
20260507230005 78 188 9.0 19.0 0.00 0.00 0.00 15 1012.9
20260507224506 77 213 9.0 18.0 0.00 0.00 0.00 16 1013.0
20260507223059 78 246 7.0 14.0 0.00 0.00 0.00 15 1013.1
20260507221556 77 309 6.0 18.0 0.00 0.00 0.00 15 1013.6
20260507220055 77 245 7.0 16.0 0.00 0.00 0.00 15 1013.8
20260507214606 77 279 3.0 13.0 0.00 0.00 0.00 17 1013.9